{"data":{"norad_id":65578,"intl_designator":"2025-203P","name":"PRAETORIAN SDA_615","alt_names":[],"object_type":"PAYLOAD","status":"ACTIVE","operator":null,"country":"US","launch_date":"2025-09-10","launch_site_code":"AFWTR","launch_vehicle":null,"mission":null,"orbit_class":"UNKNOWN","rcs_meters":null,"size_class":null,"mass_kg":null,"dimensions":null,"purposes":["military"],"wikipedia_slug":null,"has_3d_model":false,"image_url":null,"decayed_at":null,"tle_current":{"epoch":"2026-09-20T01:09:34.821216Z","epoch_age_seconds":53521,"freshness":"FRESH","line1":"1 65578U 25203P   26263.04831969  .00000148  00000+0  12176-3 0  9994","line2":"2 65578  81.2987 282.6689 0007994 296.5307  63.5030 13.84442998 51836","mean_motion":13.84442998,"eccentricity":0.0007994,"inclination_deg":81.2987,"raan_deg":282.6689,"arg_perigee_deg":296.5307,"mean_anomaly_deg":63.503,"bstar":0.00012176,"rev_number":5183,"period_min":104.01294976249,"perigee_km":942.31349520385,"apogee_km":954.0267950675,"semimajor_km":7326.3071451357,"source":"CELESTRAK","updated_at":"2026-09-20T09:00:47.717372Z"}}}